Weather Roundup
Issued by NWS Chicago, IL

Home | Current Version | Previous Version | Text Only | Print | Product List | Glossary On
Versions: 1 2 3 4 5 6 7 8 9 10 11 12 13 14 15 16 17 18 19 20 21 22 23 24 25 26 27 28 29 30 31 32 33 34 35 36 37 38 39 40 41 42 43 44 45 46 47 48 49 50
000
NZUS59 KLOT 251608
HRRLOT

CHICAGO AREA WEATHER ROUNDUP
NATIONAL WEATHER SERVICE CHICAGO/ROMEOVILLE IL
1100 AM CDT WED APR 25 2018

NOTE: "FAIR" INDICATES FEW OR NO CLOUDS BELOW 12,000 FEET WITH NO
SIGNIFICANT WEATHER AND/OR OBSTRUCTIONS TO VISIBILITY.

* THESE STATIONS ARE NOT UNDER NWS QUALITY CONTROL. THEY ALSO MAY NOT
  REPORT WEATHER SUCH AS PRECIPITATION OR FOG.

ILZ005-006-012>014-019>023-251700-
NORTHEAST ILLINOIS

CITY           SKY/WX    TMP DP  RH WIND       PRES   REMARKS
OHARE            N/A     51  29  42 NE21G26   30.11F
MIDWAY           N/A     52  33  48 NE16G24   30.11F
AURORA           N/A     55  34  45 N13       30.10F
LANSING*         N/A     46  37  73 N9G21     30.11F
JOLIET*          N/A     55  34  46 NE16      30.10F
WAUKEGAN         N/A     49  30  48 NE13G24   30.11F
DUPAGE AIRPORT   N/A     54  34  46 NE10G22   30.09F
WHEELING         N/A     50  31  48 NE17G23   30.13F
KANKAKEE*        N/A     54  36  52 N21G28    30.09S
MORRIS*          N/A     56  33  42 NE8       30.09F
LEWIS AIRPORT*   N/A     53  33  47 NE16G22   30.10F
NORTHERLY ISL    N/A     43  33  68 NW21        N/A
$$

WIZ051-052-058>065-066-070>072-251700-
SOUTHEAST WISCONSIN

CITY           SKY/WX    TMP DP  RH WIND       PRES   REMARKS
MILWAUKEE        N/A     49  31  49 NE15G23   30.13S
KENOSHA*         N/A     51  29  42 NE16G23   30.12F
RACINE*          N/A     47  31  53 N16G32    30.14S
BURLINGTON       N/A     53  31  43 N13G18    30.12F
WAUKESHA       SUNNY     50  30  46 N8        30.13S
WEST BEND        N/A     48  30  49 NW10      30.13S
$$

INZ001>003-010>013-019-020-251700-
NORTHWEST INDIANA

CITY           SKY/WX    TMP DP  RH WIND       PRES   REMARKS
GARY*          MOSUNNY   45  34  65 N20       30.13S
MICHIGAN CITY* NOT AVBL
RENSSELAER*    NOT AVBL
VALPARAISO       N/A     52  37  56 N13G22    30.08S
$$

LMZ740>746-251700-
SOUTHERN LAKE MICHIGAN

STATION/POSITION TIME  SKY/WX   TEMP WIND        PRES    VSBY
                                AIR  DIR/SP/G
                 (UTC)          (F)  (DEG/KT/KT) (MB)    (MI)
HARRISON CRIB    1510            40  350/ 21/ 23   N/A
BURNHAM HARBOR   1600            43   10/ 16/ 21   N/A
CALUMET HARBOR   1548            41  340/ 20/ 25 1019.7F
BURNS HARBOR     1440            40   10/ 17/ 20 1019.6
MICHIGAN CITY    1540            40  340/ 20/ 21   N/A
$$

ABBREVIATIONS USED IN REMARKS
   TC - TEMPERATURE IN CELSIUS
  WCI - WIND CHILL INDEX
   HX - HEAT INDEX
  VSB - VISIBILITY
$$




USA.gov is the U.S. government's official web portal to all federal, state and local government web resources and services.